Voltar ao catálogo

STARLINK-11435

AtivoComunicaçõesVLEO
NORAD 62891·PAYLOAD·🇺🇸 United States

Lançado Feb 4, 2025 de Cape Canaveral Space Force Station

Loading…

Próximas Passagens (próximas 24 horas)

TLE

AtualizadoSource: CelesTrak SupGP

Época: Sep 15, 2026, 02:12 UTC

1 62891C 25024N   26258.09215278  .00110090  00000+0  85457-3 0  2586
2 62891  43.0003 120.1639 0001678 275.3998 335.8899 15.70797667    16

Acompanhe STARLINK-11435 em tempo real com AllMySat

Download on the App Store